AFL1458 UNBB-UNWW

Flight info

Callsign AFL1458
Flight time 0h 27m
Altitude 23000
Route RISET G121 NIREG
Aircraft A320/M-SDE3FGHIRWY/LB1

Departure

Time 2026-04-30 06:01
Airport Barnaul Gherman Titov International Airport (UNBB)

Arrival

Time 2026-04-30 06:28
Airport Spichenkovo Airport (UNWW)
Time Latitude Longitude Altitude Speed Heading
2026-04-30 05:53 53.36191 83.54672 840 ft 0 kts 247°
2026-04-30 05:55 53.36187 83.54655 830 ft 4 kts 249°
2026-04-30 05:55 53.36188 83.54587 831 ft 9 kts 292°
2026-04-30 05:55 53.36256 83.54509 829 ft 15 kts 309°
2026-04-30 05:55 53.36228 83.54326 828 ft 18 kts 247°
2026-04-30 05:56 53.36176 83.54116 835 ft 19 kts 245°
2026-04-30 05:56 53.36171 83.54099 833 ft 0 kts 245°
2026-04-30 05:56 53.36166 83.54078 828 ft 4 kts 247°
2026-04-30 05:57 53.36150 83.54016 836 ft 8 kts 248°
2026-04-30 05:57 53.36147 83.54003 837 ft 0 kts 248°
2026-04-30 05:58 53.36146 83.53998 837 ft 2 kts 248°
2026-04-30 05:58 53.36134 83.53950 831 ft 8 kts 248°
2026-04-30 05:59 53.36101 83.53819 829 ft 17 kts 247°
2026-04-30 05:59 53.36048 83.53604 829 ft 17 kts 246°
2026-04-30 05:59 53.35993 83.53384 835 ft 20 kts 247°
2026-04-30 05:59 53.36026 83.53251 831 ft 16 kts 336°
2026-04-30 06:00 53.36123 83.53213 832 ft 12 kts 25°
2026-04-30 06:00 53.36151 83.53292 830 ft 10 kts 68°
2026-04-30 06:00 53.36277 83.53798 838 ft 85 kts 67°
2026-04-30 06:00 53.36588 83.55051 853 ft 143 kts 70°
2026-04-30 06:01 53.36969 83.56633 1447 ft 149 kts 69°
2026-04-30 06:01 53.37238 83.57704 1974 ft 151 kts 68°
2026-04-30 06:01 53.37662 83.59377 2583 ft 165 kts 68°
2026-04-30 06:01 53.38143 83.61256 2997 ft 187 kts 68°
2026-04-30 06:02 53.38684 83.63376 3338 ft 210 kts 68°
2026-04-30 06:02 53.39288 83.65763 3804 ft 235 kts 68°
2026-04-30 06:02 53.39963 83.68418 4353 ft 257 kts 68°
2026-04-30 06:02 53.40677 83.71231 5228 ft 266 kts 67°
2026-04-30 06:03 53.41407 83.74116 6141 ft 271 kts 67°
2026-04-30 06:03 53.41964 83.77202 7029 ft 277 kts 82°
2026-04-30 06:03 53.42119 83.80442 7892 ft 281 kts 85°
2026-04-30 06:03 53.42254 83.83741 8770 ft 286 kts 85°
2026-04-30 06:04 53.42390 83.87096 9634 ft 291 kts 85°
2026-04-30 06:04 53.42527 83.90509 10448 ft 298 kts 85°
2026-04-30 06:04 53.42670 83.94101 10782 ft 321 kts 85°
2026-04-30 06:05 53.43041 84.01951 11855 ft 347 kts 79°
2026-04-30 06:05 53.43595 84.05917 12630 ft 351 kts 74°
2026-04-30 06:05 53.44208 84.09894 13395 ft 355 kts 74°
2026-04-30 06:05 53.44828 84.13940 14129 ft 360 kts 74°
2026-04-30 06:06 53.45449 84.18021 14793 ft 364 kts 74°
2026-04-30 06:06 53.46074 84.22161 15470 ft 368 kts 74°
2026-04-30 06:06 53.46704 84.26355 16137 ft 372 kts 74°
2026-04-30 06:06 53.47337 84.30591 16792 ft 376 kts 74°
2026-04-30 06:07 53.47978 84.34873 17452 ft 380 kts 74°
2026-04-30 06:07 53.48626 84.39203 18116 ft 385 kts 75°
2026-04-30 06:07 53.49281 84.43584 18752 ft 389 kts 74°
2026-04-30 06:07 53.49943 84.48011 19322 ft 393 kts 75°
2026-04-30 06:08 53.50606 84.52489 19879 ft 397 kts 75°
2026-04-30 06:08 53.51250 84.57024 20424 ft 401 kts 75°
2026-04-30 06:08 53.51882 84.61612 20967 ft 405 kts 76°
2026-04-30 06:08 53.52513 84.66249 21497 ft 409 kts 76°
2026-04-30 06:09 53.53153 84.70930 22020 ft 413 kts 75°
2026-04-30 06:09 53.53802 84.75656 22539 ft 417 kts 75°
2026-04-30 06:09 53.54457 84.80425 23054 ft 421 kts 75°
2026-04-30 06:09 53.55115 84.85235 23246 ft 422 kts 75°
2026-04-30 06:10 53.55777 84.90080 23278 ft 418 kts 75°
2026-04-30 06:10 53.56425 84.94830 23275 ft 416 kts 75°
2026-04-30 06:10 53.57070 84.99570 23277 ft 416 kts 75°
2026-04-30 06:10 53.57711 85.04299 23277 ft 415 kts 75°
2026-04-30 06:11 53.58349 85.09040 23276 ft 415 kts 76°
2026-04-30 06:11 53.58983 85.13782 23281 ft 415 kts 76°
2026-04-30 06:11 53.59615 85.18523 23281 ft 415 kts 76°
2026-04-30 06:11 53.60246 85.23263 23280 ft 415 kts 76°
2026-04-30 06:12 53.60878 85.28003 23285 ft 415 kts 75°
2026-04-30 06:12 53.61510 85.32745 23281 ft 415 kts 76°
2026-04-30 06:12 53.62141 85.37487 23279 ft 415 kts 76°
2026-04-30 06:12 53.62774 85.42243 23135 ft 417 kts 76°
2026-04-30 06:13 53.63400 85.46975 22321 ft 408 kts 76°
2026-04-30 06:13 53.64001 85.51548 21853 ft 392 kts 76°
2026-04-30 06:13 53.64574 85.55945 21376 ft 377 kts 76°
2026-04-30 06:13 53.65131 85.60226 20900 ft 373 kts 76°
2026-04-30 06:14 53.65686 85.64498 20416 ft 373 kts 76°
2026-04-30 06:14 53.66241 85.68768 19931 ft 373 kts 76°
2026-04-30 06:14 53.66793 85.73023 19441 ft 372 kts 76°
2026-04-30 06:14 53.67347 85.77294 18979 ft 372 kts 76°
2026-04-30 06:15 53.67903 85.81613 18470 ft 372 kts 76°
2026-04-30 06:15 53.68443 85.85813 17967 ft 370 kts 76°
2026-04-30 06:15 53.68982 85.90032 17495 ft 356 kts 76°
2026-04-30 06:15 53.69486 85.94008 17040 ft 350 kts 76°
2026-04-30 06:16 53.70000 85.98063 16609 ft 350 kts 76°
2026-04-30 06:16 53.70509 86.02071 16170 ft 349 kts 76°
2026-04-30 06:16 53.71017 86.06069 15727 ft 348 kts 76°
2026-04-30 06:16 53.71527 86.10061 15293 ft 347 kts 75°
2026-04-30 06:17 53.72309 86.13892 14860 ft 344 kts 63°
2026-04-30 06:17 53.73530 86.17338 14436 ft 341 kts 52°
2026-04-30 06:17 53.74924 86.20575 13996 ft 340 kts 52°
2026-04-30 06:17 53.76310 86.23809 13530 ft 339 kts 52°
2026-04-30 06:18 53.77668 86.26997 13081 ft 327 kts 52°
2026-04-30 06:18 53.78986 86.30104 12675 ft 324 kts 52°
2026-04-30 06:18 53.80300 86.33203 12245 ft 324 kts 53°
2026-04-30 06:18 53.81614 86.36299 11814 ft 324 kts 52°
2026-04-30 06:19 53.82924 86.39389 11383 ft 323 kts 53°
2026-04-30 06:19 53.84230 86.42474 10944 ft 322 kts 53°
2026-04-30 06:19 53.85532 86.45557 10537 ft 320 kts 53°
2026-04-30 06:19 53.86787 86.48531 10335 ft 301 kts 53°
2026-04-30 06:20 53.87986 86.51375 9923 ft 293 kts 53°
2026-04-30 06:20 53.89165 86.54171 9794 ft 291 kts 53°
2026-04-30 06:20 53.90350 86.56976 9336 ft 295 kts 53°
2026-04-30 06:20 53.91534 86.59781 8990 ft 292 kts 54°
2026-04-30 06:21 53.92717 86.62596 8389 ft 290 kts 54°
2026-04-30 06:21 53.93888 86.65392 7766 ft 286 kts 54°
2026-04-30 06:21 53.95034 86.68131 7159 ft 282 kts 54°
2026-04-30 06:21 53.96162 86.70828 6616 ft 278 kts 55°
2026-04-30 06:22 53.97276 86.73493 6064 ft 275 kts 55°
2026-04-30 06:22 53.98380 86.76137 5545 ft 273 kts 55°
2026-04-30 06:22 53.99450 86.78777 5016 ft 270 kts 62°
2026-04-30 06:22 54.00046 86.81671 4750 ft 251 kts 83°
2026-04-30 06:23 54.00053 86.84512 4613 ft 231 kts 101°
2026-04-30 06:23 53.99617 86.87045 4506 ft 221 kts 111°
2026-04-30 06:23 53.99089 86.89492 4397 ft 218 kts 111°
2026-04-30 06:23 53.98570 86.91908 4306 ft 218 kts 111°
2026-04-30 06:24 53.98052 86.94325 4198 ft 217 kts 112°
2026-04-30 06:24 53.97165 86.96331 4093 ft 213 kts 150°
2026-04-30 06:24 53.95778 86.96782 3851 ft 204 kts 192°
2026-04-30 06:24 53.94460 86.95996 3596 ft 199 kts 199°
2026-04-30 06:25 53.93164 86.95190 3343 ft 199 kts 198°
2026-04-30 06:25 53.91847 86.94380 3053 ft 202 kts 198°
2026-04-30 06:25 53.90541 86.93576 2815 ft 197 kts 199°
2026-04-30 06:25 53.89256 86.92785 2540 ft 195 kts 198°
2026-04-30 06:26 53.87982 86.92002 2269 ft 190 kts 198°
2026-04-30 06:26 53.86777 86.91261 2022 ft 176 kts 198°
2026-04-30 06:26 53.85662 86.90577 1755 ft 165 kts 199°
2026-04-30 06:26 53.84605 86.89929 1526 ft 158 kts 200°
2026-04-30 06:27 53.83584 86.89303 1317 ft 154 kts 200°
2026-04-30 06:27 53.82576 86.88683 1096 ft 153 kts 201°
2026-04-30 06:27 53.81612 86.88090 1012 ft 130 kts 200°
2026-04-30 06:27 53.80934 86.87674 1013 ft 79 kts 200°
2026-04-30 06:28 53.80526 86.87421 1010 ft 57 kts 200°
2026-04-30 06:28 53.80213 86.87231 1013 ft 37 kts 200°
2026-04-30 06:28 53.80113 86.87124 1014 ft 8 kts 301°
2026-04-30 06:28 53.80184 86.87035 1013 ft 17 kts 331°
2026-04-30 06:29 53.80275 86.86902 1013 ft 17 kts 292°
2026-04-30 06:29 53.80315 86.86711 1013 ft 7 kts 292°
2026-04-30 06:29 53.80366 86.86665 1013 ft 8 kts 340°
2026-04-30 06:29 53.80388 86.86593 1013 ft 0 kts 290°